Location: Ottawa
(45.4167°N, 75.7000°W)
Time: 08:02:36
(UTC-05:00)

Vanguard 1 Rocket - All Passes

Search period start: 16 December 2017 00:00
Search period end: 26 December 2017 00:00
Orbit: 656 x 4222 km, 34.3° (Epoch: 15 December)

Date Brightness Start Highest point End Pass type
(mag) Time Alt. Az. Time Alt. Az. Time Alt. Az.
16 Dec - 00:55:23 10° WSW 01:06:09 15° SW 01:17:40 10° SSW visible
16 Dec - 14:04:13 10° SE 14:05:17 10° SE 14:06:25 10° ESE daylight
16 Dec - 16:20:43 10° SW 16:28:38 39° SSE 16:42:56 10° E daylight
16 Dec - 18:43:49 10° WSW 18:55:09 55° S 19:16:03 10° ESE visible
16 Dec - 21:09:07 10° W 21:24:05 45° SSW 21:46:55 10° SE visible
16 Dec - 23:38:28 10° W 23:53:14 24° SW 00:10:44 10° S visible
17 Dec - 15:11:42 10° SSW 15:17:52 26° SE 15:27:44 10° E daylight
17 Dec - 17:33:31 10° WSW 17:42:55 51° SSE 18:00:44 10° ESE visible
17 Dec - 19:57:48 10° W 20:10:47 50° SSW 20:32:58 10° SE visible
17 Dec - 22:24:46 10° W 22:39:58 32° SSW 23:00:23 10° SSE visible
18 Dec - 14:04:17 10° SSE 14:07:41 14° SE 14:11:58 10° ESE daylight
18 Dec - 16:23:40 10° SW 16:31:22 42° SSE 16:45:33 10° E daylight
18 Dec - 18:47:02 10° WSW 18:57:59 53° S 19:18:11 10° ESE visible
18 Dec - 21:12:30 10° W 21:26:39 39° SSW 21:48:09 10° SSE visible
18 Dec - 23:43:27 10° WSW 23:55:27 18° SW 00:09:30 10° S visible
19 Dec - 15:14:22 10° SSW 15:20:30 30° SSE 15:30:41 10° E daylight
19 Dec - 17:36:41 10° WSW 17:45:46 51° S 18:03:05 10° ESE visible
19 Dec - 20:01:07 10° W 20:13:32 45° SSW 20:34:36 10° SE visible
19 Dec - 22:28:43 10° W 22:42:23 26° SW 23:00:29 10° S visible
20 Dec - 14:06:04 10° S 14:10:12 17° SE 14:15:49 10° ESE daylight
20 Dec - 16:26:44 10° SW 16:34:12 44° SSE 16:48:07 10° E daylight
20 Dec - 18:50:18 10° WSW 19:00:51 49° S 19:20:11 10° ESE visible
20 Dec - 21:16:05 10° W 21:29:16 33° SSW 21:49:00 10° SSE visible
20 Dec - 23:50:30 10° WSW 23:57:48 12° SW 00:05:52 10° SSW visible
21 Dec - 15:17:14 10° SW 15:23:16 33° SSE 15:33:32 10° E daylight
21 Dec - 17:39:55 10° WSW 17:48:42 49° S 18:05:22 10° ESE visible
21 Dec - 20:04:32 10° W 20:16:19 40° SSW 20:35:59 10° SE visible
21 Dec - 22:33:16 10° WSW 22:44:53 20° SW 22:59:44 10° S visible
22 Dec - 14:08:24 10° S 14:12:51 21° SE 14:19:13 10° E daylight
22 Dec - 16:29:54 10° WSW 16:37:08 45° S 16:50:38 10° ESE daylight
22 Dec - 18:53:39 10° W 19:03:44 44° SSW 19:22:00 10° SE visible
22 Dec - 21:19:57 10° W 21:31:56 27° SSW 21:49:20 10° SSE visible
23 Dec - 15:20:13 10° SW 15:26:08 36° SSE 15:36:19 10° E daylight
23 Dec - 17:43:12 10° WSW 17:51:40 46° S 18:07:32 10° ESE visible
23 Dec - 20:08:06 10° W 20:19:08 34° SSW 20:37:01 10° SSE visible
23 Dec - 22:39:10 10° WSW 22:47:28 14° SW 22:57:23 10° SSW visible
24 Dec - 14:11:03 10° SSW 14:15:38 24° SSE 14:22:24 10° E daylight
24 Dec - 16:33:07 10° WSW 16:40:08 44° S 16:53:06 10° ESE visible
24 Dec - 18:57:05 10° W 19:06:41 39° SSW 19:23:34 10° SE visible
24 Dec - 21:24:19 10° WSW 21:34:40 21° SSW 21:48:56 10° S visible
25 Dec - 13:03:07 10° SSE 13:05:27 13° SE 13:08:10 10° ESE daylight
25 Dec - 15:23:20 10° SW 15:29:05 37° SSE 15:39:02 10° ESE daylight
25 Dec - 17:46:35 10° WSW 17:54:42 42° S 18:09:34 10° SE visible
25 Dec - 20:11:56 10° WSW 20:22:00 27° SSW 20:37:36 10° SSE visible
